Wind_Speed
24 26 28 30 31 30 30 31 32 32 33 35 37 37 36 34 35 36 38 39 38 38 38 38 39 39 39 39 40 41 41 41 42 42 43 43 44 44 44 44 44 44 44 44
24 27 28 28 29 29 29 31 32 31 31 32 33 35 36 36 36 37 37 38 38 39 38 39 39 39 39 39 40 40 41 41 41 41 42 42 42 43 44 45 45 45 45 45
23 27 29 29 27 26 27 30 31 31 30 31 32 33 34 35 37 37 37 37 38 38 37 37 38 39 39 39 39 39 40 40 41 41 41 41 42 43 43 44 44 45 45 44
21 25 28 29 29 27 27 29 29 30 30 31 33 33 33 34 35 36 37 37 37 37 37 37 37 38 38 39 40 39 39 39 40 40 40 41 41 42 43 43 43 43 44 43
20 24 25 27 27 27 27 27 29 30 29 31 32 33 33 33 33 34 34 35 36 36 37 37 38 37 37 38 39 39 38 39 39 39 40 40 41 41 42 42 42 42 42 42
21 23 24 24 26 27 27 27 27 29 30 30 31 32 31 32 32 32 33 34 35 35 36 37 37 37 37 38 38 38 38 38 39 39 39 40 41 41 41 41 42 42 42 42
19 20 22 24 26 27 28 27 27 28 29 30 31 31 31 32 33 34 34 34 34 34 35 36 37 37 38 38 38 37 38 38 39 39 40 40 41 40 40 40 41 41 40 40
18 19 20 22 24 25 26 27 28 29 29 30 31 31 31 31 32 33 34 34 34 34 34 34 35 36 37 37 37 37 37 38 39 39 39 40 40 39 39 39 39 39 39 40
20 20 20 21 22 23 25 26 27 29 30 30 31 31 31 31 31 32 33 34 34 34 34 34 34 33 35 36 37 38 38 38 38 38 38 39 39 39 38 38 38 39 39 40
20 20 21 22 22 22 23 24 26 28 28 30 31 31 32 31 31 31 32 33 33 34 34 34 34 33 34 34 35 37 38 38 38 38 39 39 39 38 38 38 39 39 39 39
21 22 23 23 23 23 23 24 24 25 27 28 30 30 31 32 32 32 33 33 33 33 33 34 34 34 34 34 34 34 35 36 37 37 37 37 37 37 37 37 37 38 38 38
21 23 23 23 24 24 24 24 25 25 25 26 28 29 30 31 32 32 32 32 32 33 33 34 34 34 34 34 34 34 34 34 35 36 36 36 36 36 36 37 37 37 37 37
19 20 22 23 23 23 24 24 25 25 24 26 28 29 29 30 30 31 32 32 33 33 34 34 34 34 34 34 34 34 34 34 34 35 36 36 36 36 36 37 37 37 37 37
16 17 19 20 22 23 23 23 24 24 25 26 27 28 28 29 30 31 31 31 31 32 32 33 33 33 33 33 33 34 34 34 34 34 35 35 35 35 35 35 35 35 35 35
15 16 17 19 21 22 22 22 22 22 23 25 26 27 28 28 29 29 30 30 31 31 32 32 33 33 33 32 32 33 33 33 34 33 33 33 33 33 33 33 33 33 32 32
14 14 15 16 18 19 20 21 21 21 22 23 25 26 27 28 28 29 29 30 31 31 32 32 32 33 33 33 33 32 33 33 33 33 32 31 31 31 31 32 32 32 31 31
13 14 14 14 16 17 19 20 22 22 22 22 23 24 25 26 27 28 29 29 29 30 30 30 30 31 32 32 33 33 32 32 32 31 31 31 31 30 31 31 31 30 30 29
13 13 13 14 14 15 17 19 20 21 21 22 23 23 23 24 25 26 27 28 28 28 29 29 29 29 30 30 31 31 31 30 30 30 30 31 31 31 31 30 30 29 29 29
13 13 13 13 13 14 14 16 17 19 20 21 22 22 22 23 23 24 25 25 26 27 28 28 28 28 28 28 28 28 29 29 29 29 28 28 29 30 30 30 30 29 28 28
13 13 13 13 14 14 14 14 15 16 18 19 20 21 22 23 24 23 24 24 25 26 27 28 28 28 28 28 28 28 28 28 28 27 27 27 27 28 28 28 28 28 28 27
13 13 13 13 14 14 14 15 15 15 16 17 18 19 20 22 23 23 22 23 23 24 26 26 26 26 25 26 26 26 26 27 26 26 26 26 26 26 26 25 25 25 25 25
14 14 14 14 14 14 15 15 16 16 16 16 17 18 18 19 21 21 22 22 22 23 23 23 23 23 23 23 24 24 24 25 25 25 24 25 25 25 24 24 23 23 22 22
15 15 15 15 15 15 15 16 16 17 17 17 17 17 18 18 19 20 21 21 21 22 22 23 23 23 23 23 23 23 23 23 23 23 23 23 22 22 22 22 21 21 20 19
16 16 16 16 16 16 16 16 17 17 17 18 18 18 18 19 19 19 19 20 20 21 21 22 22 22 22 22 22 22 22 22 22 22 21 20 20 19 19 19 18 18 18 18
17 17 17 17 17 16 16 16 17 17 17 17 17 18 18 19 19 19 19 19 19 19 20 20 21 21 21 21 21 21 21 21 20 20 19 19 18 18 18 17 16 16 16 16
17 17 18 17 17 17 17 16 16 16 16 16 16 17 18 18 18 18 19 19 19 19 19 19 19 19 19 19 19 19 19 19 19 19 18 18 17 16 16 15 15 14 14 14
17 17 17 17 17 17 16 16 16 16 16 16 16 16 17 17 17 17 17 18 18 18 19 19 18 18 18 18 18 18 18 18 18 18 17 17 16 16 15 15 14 13 12 12
Wind_Direction
228 228 227 225 223 224 226 228 230 231 233 233 234 233 233 233 233 233 232 232 233 233 234 236 238 239 241 244 245 246 247 248 249 250 252 254 256 257 259 262 265 268 270 272
230 228 226 226 224 224 225 226 228 231 232 231 232 232 232 233 233 233 233 233 233 234 235 238 239 241 242 245 246 248 249 249 250 251 253 255 256 259 261 263 265 268 270 272
233 228 228 227 225 228 228 228 230 232 234 232 232 232 232 233 233 233 234 234 234 235 237 239 241 242 243 244 247 248 249 250 251 253 254 256 257 259 261 264 266 268 269 271
236 232 231 230 229 230 231 229 231 233 234 233 232 232 232 233 234 235 235 235 236 236 237 239 241 243 244 245 246 247 249 250 252 254 255 257 258 260 262 265 267 268 270 271
241 238 236 232 231 231 232 233 232 231 231 232 231 230 231 232 234 234 235 235 236 237 237 238 240 243 244 245 246 248 249 250 252 254 256 257 259 261 263 264 265 268 270 272
246 243 240 238 237 237 237 236 234 234 234 234 233 233 232 233 234 234 235 235 237 238 238 239 241 243 244 245 245 247 249 251 252 254 256 257 258 260 262 264 266 268 270 272
248 244 242 239 239 239 239 239 238 237 237 236 234 233 233 234 235 235 235 236 238 240 240 241 242 244 245 245 247 248 249 251 252 255 258 258 259 260 262 264 266 268 270 273
249 246 245 241 242 242 242 241 242 242 240 238 236 234 234 234 236 236 236 237 239 241 242 243 245 246 246 247 249 249 251 253 254 256 258 259 260 261 262 264 266 268 271 273
251 250 247 246 247 246 244 242 242 242 242 241 238 237 236 236 237 236 237 238 240 242 243 245 246 247 247 247 250 251 253 255 255 256 258 260 261 262 263 264 266 269 271 273
252 248 248 248 249 247 246 244 242 242 244 242 240 239 237 237 237 237 237 239 240 241 243 244 245 246 246 248 250 252 254 255 256 257 258 260 262 264 265 266 267 269 272 274
252 250 250 248 248 248 248 245 243 242 243 241 239 238 238 237 237 238 238 238 239 240 242 243 244 245 246 248 251 252 254 255 256 257 260 261 263 265 266 267 269 271 273 274
255 253 253 250 249 249 248 245 244 244 244 241 239 238 239 238 238 239 239 239 240 240 241 243 245 246 248 250 252 252 254 255 256 258 259 261 263 265 268 269 269 271 273 274
260 256 253 251 250 251 250 247 246 246 246 243 241 240 240 240 240 241 242 242 242 243 243 244 246 248 249 251 252 253 254 256 257 258 260 261 263 265 267 269 270 271 273 274
264 259 255 252 250 251 250 248 247 247 246 244 242 240 240 241 241 242 242 242 243 244 245 246 247 248 249 251 253 254 256 257 259 260 261 261 262 264 266 268 270 272 273 273
264 261 259 255 252 250 248 247 247 248 248 246 243 241 241 242 242 243 244 245 245 246 247 247 247 247 250 251 253 254 255 257 259 260 261 262 264 265 266 267 269 271 272 272
267 264 262 258 253 248 246 246 247 248 249 247 244 242 242 244 244 244 245 246 246 246 247 247 247 247 248 250 251 254 256 257 258 259 260 262 264 266 267 268 269 269 269 270
270 268 265 262 257 252 249 248 247 248 248 246 245 244 244 244 244 245 246 246 246 245 245 247 248 249 250 251 253 255 256 257 259 260 261 263 264 267 268 268 269 267 267 268
275 273 270 267 263 259 254 250 248 247 246 246 245 245 246 246 244 244 245 245 245 245 246 248 250 250 251 252 253 254 256 257 258 259 261 263 265 267 269 269 268 267 268 269
275 273 271 269 266 263 260 257 254 252 251 249 247 245 246 247 246 244 244 244 244 245 247 249 250 250 251 252 253 254 255 256 258 259 261 264 266 268 268 268 266 265 267 269
274 271 271 269 265 263 261 259 258 258 255 252 250 248 247 248 247 246 244 244 245 246 246 248 249 250 251 252 252 253 253 256 258 259 261 264 267 268 268 267 265 266 267 269
275 272 272 271 267 264 262 260 261 261 259 256 253 250 249 247 246 245 246 246 247 247 248 248 248 250 251 252 253 253 254 256 258 260 263 266 267 268 267 266 266 266 268 268
273 271 271 271 270 267 265 264 263 263 262 260 256 252 250 249 247 247 248 250 250 249 248 247 246 248 250 251 253 254 255 257 259 261 264 267 267 266 264 264 265 266 266 265
273 271 269 270 272 272 269 267 265 264 262 260 257 254 252 250 250 250 250 250 250 249 248 247 247 248 250 251 253 254 254 256 258 260 262 264 265 264 262 261 262 262 261 260
276 271 269 270 272 273 272 271 269 267 263 259 255 253 252 251 251 251 251 250 250 249 248 248 249 249 251 252 252 252 253 255 256 257 259 261 261 259 258 258 258 257 256 255
279 273 270 271 272 272 273 274 273 269 265 260 255 252 251 250 251 251 251 250 249 248 248 248 248 248 249 249 250 251 252 253 254 256 258 259 257 255 254 253 253 254 253 251
281 274 271 270 270 272 273 274 273 270 265 260 256 254 252 252 252 251 250 249 248 249 249 247 246 245 245 247 248 249 250 250 252 254 256 256 254 252 250 248 251 251 248 246
283 276 271 270 270 271 272 272 271 270 265 261 258 256 254 253 252 250 249 247 248 249 248 246 244 244 245 246 246 247 247 248 250 252 253 251 249 248 246 246 245 242 240 241
Height
5558 5561 5564 5567 5572 5575 5579 5583 5587 5592 5596 5602 5606 5611 5615 5619 5624 5628 5632 5636 5641 5645 5649 5652 5656 5659 5662 5665 5668 5670 5673 5675 5678 5680 5682 5684 5686 5687 5689 5690 5690 5691 5690 5690
5553 5555 5558 5561 5566 5569 5573 5577 5580 5585 5589 5594 5598 5603 5607 5611 5615 5619 5623 5627 5632 5636 5640 5643 5646 5650 5653 5655 5658 5660 5663 5665 5667 5670 5672 5674 5676 5677 5678 5679 5679 5679 5679 5679
5548 5550 5552 5556 5560 5563 5567 5571 5575 5578 5583 5586 5590 5594 5599 5603 5607 5611 5615 5619 5623 5627 5630 5634 5637 5640 5643 5646 5648 5651 5653 5655 5657 5660 5662 5663 5665 5666 5667 5667 5668 5668 5668 5667
5542 5545 5548 5553 5554 5557 5560 5564 5567 5571 5575 5579 5582 5586 5590 5595 5598 5602 5606 5610 5614 5617 5621 5624 5627 5630 5633 5636 5638 5641 5643 5645 5647 5650 5651 5653 5654 5655 5656 5656 5656 5657 5657 5656
5538 5539 5542 5546 5549 5551 5554 5558 5561 5564 5567 5571 5574 5578 5582 5586 5590 5593 5597 5601 5604 5608 5611 5615 5618 5620 5623 5626 5628 5631 5633 5635 5637 5639 5641 5642 5643 5644 5645 5645 5645 5645 5645 5645
5533 5534 5537 5541 5543 5545 5549 5551 5555 5557 5560 5563 5566 5571 5576 5578 5581 5585 5588 5592 5595 5599 5602 5605 5608 5611 5613 5616 5618 5621 5623 5625 5627 5629 5630 5632 5633 5633 5634 5634 5635 5634 5634 5633
5528 5529 5531 5535 5537 5539 5543 5546 5548 5550 5553 5556 5559 5563 5567 5569 5573 5576 5580 5583 5587 5590 5593 5596 5598 5601 5604 5606 5608 5611 5613 5614 5616 5618 5619 5621 5622 5623 5623 5623 5624 5624 5623 5623
5523 5524 5529 5529 5530 5533 5536 5538 5540 5542 5545 5548 5551 5554 5557 5561 5564 5567 5570 5574 5578 5581 5584 5586 5589 5592 5594 5596 5599 5601 5603 5605 5606 5607 5609 5610 5611 5612 5612 5613 5613 5613 5612 5611
5519 5521 5521 5522 5524 5526 5528 5530 5532 5534 5537 5540 5543 5546 5549 5552 5555 5559 5562 5565 5568 5572 5575 5577 5580 5582 5584 5587 5589 5591 5593 5594 5595 5597 5598 5599 5600 5601 5602 5602 5602 5602 5602 5600
5513 5514 5515 5516 5517 5519 5520 5522 5524 5527 5529 5532 5534 5538 5541 5544 5547 5550 5553 5556 5559 5562 5565 5568 5571 5573 5575 5577 5578 5580 5582 5584 5585 5586 5588 5589 5590 5591 5591 5591 5591 5591 5590 5589
5506 5508 5509 5510 5511 5512 5514 5515 5517 5519 5521 5524 5526 5529 5532 5535 5539 5542 5545 5548 5551 5554 5556 5559 5561 5563 5565 5567 5569 5570 5572 5573 5575 5576 5577 5578 5579 5580 5580 5581 5580 5580 5580 5579
5500 5501 5502 5503 5504 5505 5507 5508 5510 5512 5514 5516 5518 5521 5524 5527 5530 5533 5536 5539 5542 5544 5547 5550 5552 5554 5556 5558 5559 5561 5562 5564 5565 5566 5567 5568 5569 5569 5569 5570 5570 5569 5569 5568
5493 5494 5495 5496 5497 5498 5500 5501 5503 5504 5506 5508 5510 5513 5516 5518 5521 5524 5527 5530 5532 5535 5538 5540 5542 5544 5546 5548 5550 5551 5553 5554 5555 5556 5557 5558 5559 5559 5559 5559 5559 5559 5558 5557
5487 5487 5488 5489 5490 5491 5493 5494 5495 5497 5499 5501 5503 5505 5508 5510 5513 5515 5518 5521 5523 5526 5528 5530 5533 5535 5537 5539 5540 5542 5543 5544 5545 5546 5547 5548 5548 5549 5549 5549 5549 5548 5548 5547
5481 5482 5482 5483 5484 5485 5486 5487 5489 5490 5491 5493 5495 5497 5500 5502 5504 5507 5509 5511 5514 5516 5519 5521 5523 5525 5527 5529 5531 5532 5534 5535 5536 5537 5537 5538 5538 5539 5539 5539 5539 5538 5538 5537
5476 5476 5476 5477 5477 5478 5479 5481 5482 5483 5484 5486 5487 5489 5491 5494 5496 5498 5500 5502 5505 5507 5509 5511 5513 5516 5518 5520 5521 5523 5524 5525 5526 5527 5528 5528 5529 5529 5529 5529 5529 5529 5529 5528
5472 5471 5471 5471 5472 5472 5473 5474 5475 5476 5477 5478 5480 5481 5483 5485 5487 5489 5491 5494 5496 5498 5500 5502 5504 5506 5508 5510 5512 5513 5514 5516 5517 5518 5518 5519 5520 5520 5520 5520 5520 5520 5520 5520
5467 5466 5466 5466 5466 5466 5467 5467 5468 5469 5470 5471 5472 5474 5475 5477 5479 5481 5483 5485 5487 5490 5492 5494 5495 5497 5499 5500 5502 5504 5505 5506 5507 5508 5509 5510 5510 5511 5511 5511 5511 5511 5511 5511
5462 5462 5461 5461 5461 5461 5461 5461 5462 5462 5463 5464 5465 5467 5468 5470 5472 5473 5475 5477 5479 5482 5483 5485 5487 5488 5490 5492 5493 5495 5496 5497 5498 5499 5500 5501 5501 5501 5501 5502 5502 5502 5502 5502
5457 5457 5457 5456 5456 5456 5456 5456 5456 5456 5457 5458 5458 5460 5461 5463 5464 5466 5468 5470 5471 5473 5475 5477 5478 5480 5482 5483 5485 5486 5488 5489 5490 5491 5491 5492 5492 5492 5492 5492 5493 5493 5493 5493
5452 5452 5452 5451 5451 5451 5450 5450 5451 5451 5451 5452 5452 5453 5454 5456 5457 5459 5461 5462 5464 5465 5467 5469 5470 5472 5474 5475 5477 5478 5479 5481 5481 5482 5483 5483 5483 5483 5483 5484 5484 5484 5484 5484
5447 5447 5447 5446 5446 5446 5445 5445 5445 5445 5445 5446 5446 5447 5448 5449 5451 5452 5454 5455 5457 5458 5460 5461 5463 5464 5466 5468 5469 5470 5471 5472 5473 5474 5474 5475 5475 5475 5475 5476 5476 5476 5476 5476
5442 5442 5441 5441 5441 5440 5440 5439 5439 5439 5439 5439 5440 5441 5442 5443 5444 5446 5447 5448 5450 5451 5452 5454 5455 5457 5458 5460 5461 5463 5464 5465 5465 5466 5467 5467 5467 5467 5468 5468 5468 5469 5469 5470
5436 5436 5435 5435 5435 5435 5434 5434 5433 5433 5433 5433 5434 5435 5436 5437 5438 5439 5440 5441 5442 5444 5445 5447 5448 5450 5451 5453 5454 5455 5456 5457 5458 5459 5459 5460 5460 5460 5461 5461 5462 5462 5463 5464
5430 5429 5429 5429 5429 5428 5428 5428 5427 5427 5427 5427 5427 5428 5429 5430 5431 5432 5434 5435 5436 5437 5439 5440 5441 5443 5444 5446 5447 5448 5449 5450 5451 5452 5453 5453 5454 5454 5455 5456 5456 5457 5457 5458
5423 5422 5422 5422 5422 5422 5422 5421 5421 5420 5420 5421 5421 5422 5423 5424 5425 5426 5427 5428 5430 5431 5432 5433 5435 5436 5438 5439 5440 5442 5443 5444 5445 5446 5446 5447 5448 5449 5449 5450 5451 5451 5452 5453
5416 5416 5416 5416 5416 5415 5415 5415 5414 5414 5414 5414 5415 5415 5416 5417 5418 5419 5420 5422 5423 5425 5426 5427 5429 5430 5432 5433 5434 5436 5437 5438 5439 5440 5441 5442 5443 5444 5444 5445 5446 5447 5448 5449